Starlink 35248

operational
NORAD ID: 65598 Int'l Des: 2025-207 Owner: SPXS Country: US Constellation: starlink
NOTLE

Starlink 35248について

説明を読み込み中...

リアルタイム位置

3D地球を読み込み中...

次回通過

高度履歴

Altitude vs Time

uPlot chart will show altitude changes over time

軌道要素

1 65598U 25207G 25308.60647861 .00034143 00000-0 87319-3 0 9991
2 65598 97.6053 12.9422 0001966 85.0036 275.1434 15.39361604 9282
Epoch: Nov 4, 2025 • Age: 14 hours

現在のステータス

高度 451.0 km
速度 7.65 km/s
衛星直下点 30.47°N, 106.53°W
打ち上げ日 Sep 13, 2025
運用期間 0.1 years
タイプ internet

技術仕様

分類 Payload
質量 575.00 kg
乾燥質量 530.00 kg
総質量 575.00 kg
長さ 0.30 m
直径 4.10 m
スパン 29.00 m
形状 Box + pan
製造者 SPXS
バスタイプ Starlink V2MO
フェーズステータス In Orbit
所有者/国 SPXS/US

大規模コンステレーション

Loading constellations...